SKYMED 4

导读

SKYMED 4(全称COSMO-SkyMed 4)是意大利航天局研制的第一代对地观测卫星,属于COSMO-SkyMed星座的第四颗组网卫星,于2010年11月6日发射入轨。卫星运行于620公里高度的太阳同步轨道,携带合成孔径雷达,可不受天气光照影响获取高分辨率地表影像,服务于灾害监测、国防安全、资源勘探、海事管理等军民多个领域,为全球环境治理与安全保障提供了重要数据支撑。

Basic Information
目录编号:
37216
目录名称:
SKYMED 4
国际标识:
2010-060A
轨道中心:
EARTH
卫星名称:
SKYMED 4
卫星全名:
--
卫星状态:
在轨 (已飞行5729 天)
发射日期:
2010-11-06 UTC
国别 :
意大利 (IT)
星等 :
--
Orbit Information
数据来源 国际轨道数据 AOE轨道数据
星历时间 2026-07-14T04:10:07+0800
10小时前
查看轨道信息
2026-07-13T18:00:00+0800
20小时前
查看轨道信息
半长轴 7000.691km 7000.692km
偏心率 0.0001503 0.0001293
轨道倾角 97.889° 97.888°
近地点辐角 84.957° 91.700°
升交点赤经 18.055° 17.636°
平近点角 275.182° 169.094°
近地点 621.501km 621.649km
远地点 623.607km 623.461km
周期 97.156分钟 97.156分钟
每日圈数 14.821475 14.821473
Detailed Information
使用方式:
暂无
2D Orbit Map
3D Orbit Map
Orbit Altitude Analysis Chart
Orbit Inclination Analysis Chart
Orbit Comprehensive Analysis Chart
View Comprehensive Chart